Location: Ravensburg
(47.7866°N, 9.6124°E)
Time: 06:27:37
(UTC+02:00)

AO-73 - Pass Details

Date: 23 March 2026
Orbit: 514 x 567 km, 97.8° (Epoch: 17 April)

Event Time Altitude Azimuth Distance (km) Brightness Sun altitude
Rises 04:09:38 0° 14° (NNE) 2,652 ? -21.7°
Reaches altitude 10° 04:11:45 10° 16° (NNE) 1,755 ? -21.3°
Maximum altitude 04:15:31 78° 102° (ESE) 533 ? -20.8°
Enters shadow 04:16:27 49° 178° (S) 671 ? -20.6°
